Time,TemperatureF,DewpointF,PressureIn,WindDirection,WindDirectionDegrees,WindSpeedMPH,WindSpeedGustMPH,Humidity,HourlyPrecipIn,Conditions,Clouds,dailyrainin,SoftwareType,DateUTC
2013-02-27 00:00:00,30.3,26.6,28.21,NW,314,4.0,4.0,86,0.00,,,0.00,Wunderground v.1.15,2013-02-27 06:00:00,
2013-02-27 00:06:00,30.2,26.5,28.21,NNW,330,5.0,5.0,86,0.00,,,0.00,Wunderground v.1.15,2013-02-27 06:06:00,
2013-02-27 00:12:00,30.1,26.4,28.21,NNW,328,4.0,4.0,86,0.00,,,0.00,Wunderground v.1.15,2013-02-27 06:12:00,
2013-02-27 00:18:00,30.0,26.3,28.21,North,10,3.0,4.0,86,0.00,,,0.00,Wunderground v.1.15,2013-02-27 06:18:00,
2013-02-27 00:24:00,29.9,26.5,28.21,NNW,344,2.0,3.0,87,0.00,,,0.00,Wunderground v.1.15,2013-02-27 06:24:00,
2013-02-27 00:30:00,29.8,26.4,28.21,WNW,300,1.0,3.0,87,0.00,,,0.00,Wunderground v.1.15,2013-02-27 06:30:00,
2013-02-27 00:36:00,29.7,26.3,28.22,NW,305,1.0,4.0,87,0.00,,,0.00,Wunderground v.1.15,2013-02-27 06:36:00,
2013-02-27 00:42:00,29.6,26.2,28.22,North,5,2.0,4.0,87,0.00,,,0.00,Wunderground v.1.15,2013-02-27 06:42:00,
2013-02-27 00:48:00,29.6,26.5,28.22,North,6,2.0,4.0,88,0.00,,,0.00,Wunderground v.1.15,2013-02-27 06:48:00,
2013-02-27 00:54:00,29.6,26.5,28.22,NNW,347,2.0,5.0,88,0.00,,,0.00,Wunderground v.1.15,2013-02-27 06:54:00,
2013-02-27 01:00:00,29.6,26.2,28.22,WNW,283,3.0,3.0,87,0.00,,,0.00,Wunderground v.1.15,2013-02-27 07:00:00,
2013-02-27 01:06:00,29.6,26.2,28.22,NE,55,3.0,4.0,87,0.00,,,0.00,Wunderground v.1.15,2013-02-27 07:06:00,
2013-02-27 01:12:00,29.6,26.5,28.22,NW,320,3.0,3.0,88,0.00,,,0.00,Wunderground v.1.15,2013-02-27 07:12:00,
2013-02-27 01:18:00,29.6,26.2,28.22,North,351,2.0,3.0,87,0.00,,,0.00,Wunderground v.1.15,2013-02-27 07:18:00,
2013-02-27 01:24:00,29.6,26.5,28.22,North,354,1.0,3.0,88,0.00,,,0.00,Wunderground v.1.15,2013-02-27 07:24:00,
2013-02-27 01:30:00,29.5,26.4,28.22,NNW,336,1.0,3.0,88,0.00,,,0.00,Wunderground v.1.15,2013-02-27 07:30:00,
2013-02-27 01:36:00,29.4,26.3,28.22,WNW,300,1.0,3.0,88,0.00,,,0.00,Wunderground v.1.15,2013-02-27 07:36:00,
2013-02-27 01:42:00,29.3,26.2,28.22,NNW,338,2.0,3.0,88,0.00,,,0.00,Wunderground v.1.15,2013-02-27 07:42:00,
2013-02-27 01:48:00,29.3,26.5,28.22,WNW,297,2.0,3.0,89,0.00,,,0.00,Wunderground v.1.15,2013-02-27 07:48:00,
2013-02-27 01:54:00,29.3,26.5,28.22,NNW,345,2.0,3.0,89,0.00,,,0.00,Wunderground v.1.15,2013-02-27 07:54:00,
2013-02-27 02:00:00,29.3,26.5,28.22,NW,306,3.0,3.0,89,0.00,,,0.00,Wunderground v.1.15,2013-02-27 08:00:00,
2013-02-27 02:06:00,29.4,26.6,28.22,North,354,3.0,4.0,89,0.00,,,0.00,Wunderground v.1.15,2013-02-27 08:06:00,
2013-02-27 02:12:00,29.4,26.3,28.23,NNW,333,4.0,4.0,88,0.00,,,0.00,Wunderground v.1.15,2013-02-27 08:12:00,
2013-02-27 02:18:00,29.5,26.4,28.23,North,6,4.0,4.0,88,0.00,,,0.00,Wunderground v.1.15,2013-02-27 08:18:00,
2013-02-27 02:24:00,29.5,26.1,28.23,NW,325,2.0,3.0,87,0.00,,,0.00,Wunderground v.1.15,2013-02-27 08:24:00,
2013-02-27 02:30:00,29.5,26.4,28.23,NNW,338,3.0,5.0,88,0.00,,,0.00,Wunderground v.1.15,2013-02-27 08:30:00,
2013-02-27 02:36:00,29.4,26.3,28.23,WNW,299,4.0,5.0,88,0.00,,,0.00,Wunderground v.1.15,2013-02-27 08:36:00,
2013-02-27 02:42:00,29.3,26.2,28.23,NW,326,4.0,7.0,88,0.00,,,0.00,Wunderground v.1.15,2013-02-27 08:42:00,
2013-02-27 02:48:00,29.2,26.4,28.23,NW,311,5.0,7.0,89,0.00,,,0.00,Wunderground v.1.15,2013-02-27 08:48:00,
2013-02-27 02:54:00,29.1,26.3,28.23,NNE,22,4.0,5.0,89,0.00,,,0.00,Wunderground v.1.15,2013-02-27 08:54:00,
2013-02-27 03:01:00,29.0,26.2,28.23,NW,310,4.0,10.0,89,0.00,,,0.00,Wunderground v.1.15,2013-02-27 09:01:00,
2013-02-27 03:06:00,28.9,26.3,28.23,NW,321,4.0,10.0,90,0.00,,,0.00,Wunderground v.1.15,2013-02-27 09:06:00,
2013-02-27 03:12:00,28.8,26.2,28.23,WNW,301,3.0,10.0,90,0.00,,,0.00,Wunderground v.1.15,2013-02-27 09:12:00,
2013-02-27 03:18:00,28.7,26.1,28.23,NNW,330,3.0,10.0,90,0.00,,,0.00,Wunderground v.1.15,2013-02-27 09:18:00,
2013-02-27 03:24:00,28.6,26.0,28.23,North,354,3.0,10.0,90,0.00,,,0.00,Wunderground v.1.15,2013-02-27 09:24:00,
2013-02-27 03:30:00,28.5,25.9,28.23,North,356,3.0,3.0,90,0.00,,,0.00,Wunderground v.1.15,2013-02-27 09:30:00,
2013-02-27 03:36:00,28.5,25.9,28.23,NNW,328,3.0,10.0,90,0.00,,,0.00,Wunderground v.1.15,2013-02-27 09:36:00,
2013-02-27 03:42:00,28.6,26.0,28.22,NW,304,3.0,10.0,90,0.00,,,0.00,Wunderground v.1.15,2013-02-27 09:42:00,
2013-02-27 03:48:00,28.6,26.0,28.22,NNW,331,2.0,10.0,90,0.00,,,0.00,Wunderground v.1.15,2013-02-27 09:48:00,
2013-02-27 03:54:00,28.5,25.9,28.22,North,354,4.0,10.0,90,0.00,,,0.00,Wunderground v.1.15,2013-02-27 09:54:00,
2013-02-27 04:00:00,28.6,26.0,28.23,North,4,3.0,10.0,90,0.00,,,0.00,Wunderground v.1.15,2013-02-27 10:00:00,
2013-02-27 04:06:00,28.4,25.8,28.23,NNW,335,3.0,10.0,90,0.00,,,0.00,Wunderground v.1.15,2013-02-27 10:06:00,
2013-02-27 04:12:00,28.3,25.7,28.23,NNW,342,3.0,10.0,90,0.00,,,0.00,Wunderground v.1.15,2013-02-27 10:12:00,
2013-02-27 04:18:00,28.2,25.6,28.23,NW,321,3.0,10.0,90,0.00,,,0.00,Wunderground v.1.15,2013-02-27 10:18:00,
2013-02-27 04:24:00,28.1,25.5,28.23,NNW,345,2.0,10.0,90,0.00,,,0.00,Wunderground v.1.15,2013-02-27 10:24:00,
2013-02-27 04:30:00,27.9,25.3,28.23,NW,326,2.0,10.0,90,0.00,,,0.00,Wunderground v.1.15,2013-02-27 10:30:00,
2013-02-27 04:36:00,27.7,25.4,28.24,NNW,333,3.0,10.0,91,0.00,,,0.00,Wunderground v.1.15,2013-02-27 10:36:00,
2013-02-27 04:42:00,27.7,25.4,28.24,WNW,297,3.0,5.0,91,0.00,,,0.00,Wunderground v.1.15,2013-02-27 10:42:00,
2013-02-27 04:48:00,27.6,25.3,28.24,NW,309,3.0,10.0,91,0.00,,,0.00,Wunderground v.1.15,2013-02-27 10:48:00,
2013-02-27 04:54:00,27.6,25.6,28.24,NNW,332,4.0,10.0,92,0.00,,,0.00,Wunderground v.1.15,2013-02-27 10:54:00,
2013-02-27 05:00:00,27.6,25.6,28.24,NW,319,3.0,3.0,92,0.00,,,0.00,Wunderground v.1.15,2013-02-27 11:00:00,
2013-02-27 05:06:00,27.7,25.7,28.24,NNW,338,3.0,10.0,92,0.00,,,0.00,Wunderground v.1.15,2013-02-27 11:06:00,
2013-02-27 05:12:00,27.8,25.8,28.24,NW,314,3.0,10.0,92,0.00,,,0.00,Wunderground v.1.15,2013-02-27 11:12:00,
2013-02-27 05:18:00,27.9,25.6,28.24,NW,316,4.0,10.0,91,0.00,,,0.00,Wunderground v.1.15,2013-02-27 11:18:00,
2013-02-27 05:24:00,28.0,25.4,28.25,NW,304,5.0,10.0,90,0.00,,,0.00,Wunderground v.1.15,2013-02-27 11:24:00,
2013-02-27 05:30:00,28.0,25.2,28.25,NNW,338,6.0,6.0,89,0.00,,,0.00,Wunderground v.1.15,2013-02-27 11:30:00,
2013-02-27 05:36:00,27.9,24.8,28.25,North,352,6.0,10.0,88,0.00,,,0.00,Wunderground v.1.15,2013-02-27 11:36:00,
2013-02-27 05:42:00,27.8,24.7,28.25,NW,314,6.0,10.0,88,0.00,,,0.00,Wunderground v.1.15,2013-02-27 11:42:00,
2013-02-27 05:48:00,27.7,24.6,28.26,NW,310,7.0,13.0,88,0.00,,,0.00,Wunderground v.1.15,2013-02-27 11:48:00,
2013-02-27 05:54:00,27.6,24.5,28.26,NW,316,8.0,10.0,88,0.00,,,0.00,Wunderground v.1.15,2013-02-27 11:54:00,
2013-02-27 06:00:00,27.4,24.6,28.26,NNW,347,7.0,7.0,89,0.00,,,0.00,Wunderground v.1.15,2013-02-27 12:00:00,
2013-02-27 06:06:00,27.4,24.6,28.26,West,273,6.0,10.0,89,0.00,,,0.00,Wunderground v.1.15,2013-02-27 12:06:00,
2013-02-27 06:12:00,27.3,24.2,28.26,NNW,346,6.0,10.0,88,0.00,,,0.00,Wunderground v.1.15,2013-02-27 12:12:00,
2013-02-27 06:18:00,27.3,24.2,28.27,NNW,335,7.0,10.0,88,0.00,,,0.00,Wunderground v.1.15,2013-02-27 12:18:00,
2013-02-27 06:24:00,27.3,23.9,28.27,NNW,339,8.0,14.0,87,0.00,,,0.00,Wunderground v.1.15,2013-02-27 12:24:00,
2013-02-27 06:30:00,27.3,24.2,28.27,WNW,295,8.0,8.0,88,0.00,,,0.00,Wunderground v.1.15,2013-02-27 12:30:00,
2013-02-27 06:36:00,27.3,24.2,28.27,NW,305,7.0,10.0,88,0.00,,,0.00,Wunderground v.1.15,2013-02-27 12:36:00,
2013-02-27 06:42:00,27.2,24.1,28.28,NW,313,8.0,10.0,88,0.00,,,0.00,Wunderground v.1.15,2013-02-27 12:42:00,
2013-02-27 06:48:00,27.1,24.0,28.28,NW,323,8.0,12.0,88,0.00,,,0.00,Wunderground v.1.15,2013-02-27 12:48:00,
2013-02-27 06:54:00,27.0,23.9,28.28,West,271,6.0,10.0,88,0.00,,,0.00,Wunderground v.1.15,2013-02-27 12:54:00,
2013-02-27 07:00:00,27.0,23.9,28.28,NW,311,6.0,6.0,88,0.00,,,0.00,Wunderground v.1.15,2013-02-27 13:00:00,
2013-02-27 07:06:00,26.9,23.8,28.28,ENE,77,5.0,11.0,88,0.00,,,0.00,Wunderground v.1.15,2013-02-27 13:06:00,
2013-02-27 07:12:00,26.9,23.8,28.28,WNW,303,6.0,10.0,88,0.00,,,0.00,Wunderground v.1.15,2013-02-27 13:12:00,
2013-02-27 07:18:00,26.7,23.4,28.28,NW,308,8.0,11.0,87,0.00,,,0.00,Wunderground v.1.15,2013-02-27 13:18:00,
2013-02-27 07:24:00,26.7,23.6,28.28,WNW,294,7.0,10.0,88,0.00,,,0.00,Wunderground v.1.15,2013-02-27 13:24:00,
2013-02-27 07:30:00,26.7,23.6,28.29,NW,326,7.0,10.0,88,0.00,,,0.00,Wunderground v.1.15,2013-02-27 13:30:00,
2013-02-27 07:36:00,26.6,23.5,28.29,NW,323,6.0,10.0,88,0.00,,,0.00,Wunderground v.1.15,2013-02-27 13:36:00,
2013-02-27 07:42:00,26.5,23.4,28.29,NNW,333,5.0,7.0,88,0.00,,,0.00,Wunderground v.1.15,2013-02-27 13:42:00,
2013-02-27 07:48:00,26.5,23.4,28.29,NNW,335,6.0,11.0,88,0.00,,,0.00,Wunderground v.1.15,2013-02-27 13:48:00,
2013-02-27 07:54:00,26.3,23.2,28.29,NNW,327,5.0,10.0,88,0.00,,,0.00,Wunderground v.1.15,2013-02-27 13:54:00,
2013-02-27 08:00:00,26.2,22.9,28.29,NNW,338,3.0,10.0,87,0.00,,,0.00,Wunderground v.1.15,2013-02-27 14:00:00,
2013-02-27 08:06:00,26.0,22.7,28.29,North,356,3.0,10.0,87,0.00,,,0.00,Wunderground v.1.15,2013-02-27 14:06:00,
2013-02-27 08:12:00,26.0,22.9,28.29,NW,325,3.0,10.0,88,0.00,,,0.00,Wunderground v.1.15,2013-02-27 14:12:00,
2013-02-27 08:18:00,26.0,22.9,28.29,NNW,332,4.0,10.0,88,0.00,,,0.00,Wunderground v.1.15,2013-02-27 14:18:00,
2013-02-27 08:24:00,26.1,23.3,28.29,NNW,333,4.0,10.0,89,0.00,,,0.00,Wunderground v.1.15,2013-02-27 14:24:00,
2013-02-27 08:30:00,26.0,23.2,28.29,NW,320,5.0,10.0,89,0.00,,,0.00,Wunderground v.1.15,2013-02-27 14:30:00,
2013-02-27 08:36:00,26.0,23.2,28.29,North,350,5.0,10.0,89,0.00,,,0.00,Wunderground v.1.15,2013-02-27 14:36:00,
2013-02-27 08:42:00,25.9,23.1,28.30,NNW,330,5.0,10.0,89,0.00,,,0.00,Wunderground v.1.15,2013-02-27 14:42:00,
2013-02-27 08:48:00,25.9,23.1,28.30,NNW,336,5.0,10.0,89,0.00,,,0.00,Wunderground v.1.15,2013-02-27 14:48:00,
2013-02-27 08:54:00,25.8,22.7,28.30,NNW,329,5.0,10.0,88,0.00,,,0.00,Wunderground v.1.15,2013-02-27 14:54:00,
2013-02-27 09:00:00,25.8,22.5,28.30,WNW,302,6.0,6.0,87,0.00,,,0.00,Wunderground v.1.15,2013-02-27 15:00:00,
2013-02-27 09:06:00,25.8,22.2,28.30,NNW,335,6.0,11.0,86,0.00,,,0.00,Wunderground v.1.15,2013-02-27 15:06:00,
2013-02-27 09:12:00,25.7,21.8,28.31,NW,310,7.0,10.0,85,0.00,,,0.00,Wunderground v.1.15,2013-02-27 15:12:00,
2013-02-27 09:18:00,25.6,21.7,28.31,WNW,291,6.0,10.0,85,0.00,,,0.00,Wunderground v.1.15,2013-02-27 15:18:00,
2013-02-27 09:24:00,25.5,21.9,28.31,NNE,25,4.0,10.0,86,0.00,,,0.00,Wunderground v.1.15,2013-02-27 15:24:00,
2013-02-27 09:30:00,25.4,21.5,28.31,NNW,329,4.0,10.0,85,0.00,,,0.00,Wunderground v.1.15,2013-02-27 15:30:00,
2013-02-27 09:36:00,25.4,21.5,28.31,NW,318,4.0,10.0,85,0.00,,,0.00,Wunderground v.1.15,2013-02-27 15:36:00,
2013-02-27 09:42:00,25.4,21.2,28.31,NNE,32,3.0,10.0,84,0.00,,,0.00,Wunderground v.1.15,2013-02-27 15:42:00,
2013-02-27 09:48:00,25.6,21.4,28.31,NE,46,3.0,10.0,84,0.00,,,0.00,Wunderground v.1.15,2013-02-27 15:48:00,
2013-02-27 09:54:00,25.6,21.2,28.32,NNE,20,4.0,10.0,83,0.00,,,0.00,Wunderground v.1.15,2013-02-27 15:54:00,
2013-02-27 10:00:00,25.7,21.0,28.32,NNW,347,4.0,10.0,82,0.00,,,0.00,Wunderground v.1.15,2013-02-27 16:00:00,
2013-02-27 10:06:00,25.6,20.9,28.32,North,9,4.0,10.0,82,0.00,,,0.00,Wunderground v.1.15,2013-02-27 16:06:00,
2013-02-27 10:12:00,25.5,20.8,28.32,NW,319,5.0,10.0,82,0.00,,,0.00,Wunderground v.1.15,2013-02-27 16:12:00,
2013-02-27 10:18:00,25.7,21.3,28.32,NW,307,4.0,10.0,83,0.00,,,0.00,Wunderground v.1.15,2013-02-27 16:18:00,
2013-02-27 10:24:00,25.7,21.0,28.33,NE,35,4.0,10.0,82,0.00,,,0.00,Wunderground v.1.15,2013-02-27 16:24:00,
2013-02-27 10:30:00,25.7,21.3,28.33,NW,316,3.0,10.0,83,0.00,,,0.00,Wunderground v.1.15,2013-02-27 16:30:00,
2013-02-27 10:36:00,25.7,21.3,28.33,ENE,61,4.0,10.0,83,0.00,,,0.00,Wunderground v.1.15,2013-02-27 16:36:00,
2013-02-27 10:42:00,25.9,21.4,28.33,NNE,27,4.0,10.0,83,0.00,,,0.00,Wunderground v.1.15,2013-02-27 16:42:00,
2013-02-27 10:48:00,26.2,21.5,28.33,NNW,332,3.0,10.0,82,0.00,,,0.00,Wunderground v.1.15,2013-02-27 16:48:00,
2013-02-27 10:54:00,26.2,21.5,28.33,NE,49,4.0,10.0,82,0.00,,,0.00,Wunderground v.1.15,2013-02-27 16:54:00,
2013-02-27 11:00:00,26.4,21.7,28.33,NW,326,5.0,5.0,82,0.00,,,0.00,Wunderground v.1.15,2013-02-27 17:00:00,
2013-02-27 11:06:00,26.9,21.8,28.33,NW,326,4.0,10.0,81,0.00,,,0.00,Wunderground v.1.15,2013-02-27 17:06:00,
2013-02-27 11:12:00,27.3,21.9,28.33,NNE,23,5.0,10.0,80,0.00,,,0.00,Wunderground v.1.15,2013-02-27 17:12:00,
2013-02-27 11:18:00,28.0,22.3,28.32,NNW,348,5.0,10.0,79,0.00,,,0.00,Wunderground v.1.15,2013-02-27 17:18:00,
2013-02-27 11:24:00,28.5,22.5,28.32,NNW,336,5.0,10.0,78,0.00,,,0.00,Wunderground v.1.15,2013-02-27 17:24:00,
2013-02-27 11:30:00,28.8,22.5,28.32,NE,38,5.0,10.0,77,0.00,,,0.00,Wunderground v.1.15,2013-02-27 17:30:00,
2013-02-27 11:36:00,29.1,22.8,28.32,NNW,331,6.0,10.0,77,0.00,,,0.00,Wunderground v.1.15,2013-02-27 17:36:00,
2013-02-27 11:42:00,29.5,22.6,28.32,North,6,5.0,10.0,75,0.00,,,0.00,Wunderground v.1.15,2013-02-27 17:42:00,
2013-02-27 11:48:00,29.6,23.0,28.32,NE,40,6.0,10.0,76,0.00,,,0.00,Wunderground v.1.15,2013-02-27 17:48:00,
2013-02-27 11:54:00,30.0,23.0,28.32,NE,41,6.0,10.0,75,0.00,,,0.00,Wunderground v.1.15,2013-02-27 17:54:00,
2013-02-27 12:00:00,30.1,23.4,28.32,North,1,5.0,5.0,76,0.00,,,0.00,Wunderground v.1.15,2013-02-27 18:00:00,
2013-02-27 12:06:00,30.2,23.2,28.32,East,80,4.0,10.0,75,0.00,,,0.00,Wunderground v.1.15,2013-02-27 18:06:00,
2013-02-27 12:12:00,30.3,23.3,28.32,North,6,5.0,10.0,75,0.00,,,0.00,Wunderground v.1.15,2013-02-27 18:12:00,
2013-02-27 12:18:00,29.9,22.9,28.33,NE,41,6.0,10.0,75,0.00,,,0.00,Wunderground v.1.15,2013-02-27 18:18:00,
2013-02-27 12:24:00,29.6,23.3,28.33,NNW,336,6.0,10.0,77,0.00,,,0.00,Wunderground v.1.15,2013-02-27 18:24:00,
2013-02-27 12:30:00,29.7,23.4,28.33,NNW,330,6.0,6.0,77,0.00,,,0.00,Wunderground v.1.15,2013-02-27 18:30:00,
2013-02-27 12:36:00,29.6,23.3,28.33,NNW,348,6.0,10.0,77,0.00,,,0.00,Wunderground v.1.15,2013-02-27 18:36:00,
2013-02-27 12:42:00,29.6,23.3,28.33,NNE,23,6.0,10.0,77,0.00,,,0.00,Wunderground v.1.15,2013-02-27 18:42:00,
2013-02-27 12:48:00,29.4,23.4,28.33,NNE,33,7.0,10.0,78,0.00,,,0.00,Wunderground v.1.15,2013-02-27 18:48:00,
2013-02-27 12:54:00,29.2,23.2,28.33,NNE,30,8.0,10.0,78,0.00,,,0.00,Wunderground v.1.15,2013-02-27 18:54:00,
2013-02-27 13:00:00,29.1,23.4,28.34,North,360,7.0,7.0,79,0.00,,,0.00,Wunderground v.1.15,2013-02-27 19:00:00,
2013-02-27 13:06:00,29.2,23.2,28.33,NNE,19,7.0,10.0,78,0.00,,,0.00,Wunderground v.1.15,2013-02-27 19:06:00,
2013-02-27 13:12:00,28.8,23.1,28.33,NE,43,7.0,10.0,79,0.00,,,0.00,Wunderground v.1.15,2013-02-27 19:12:00,
2013-02-27 13:18:00,28.8,23.1,28.34,NE,44,6.0,10.0,79,0.00,,,0.00,Wunderground v.1.15,2013-02-27 19:18:00,
2013-02-27 13:24:00,28.9,23.2,28.34,NNW,333,5.0,10.0,79,0.00,,,0.00,Wunderground v.1.15,2013-02-27 19:24:00,
2013-02-27 13:30:00,28.7,23.0,28.34,NNE,20,6.0,10.0,79,0.00,,,0.00,Wunderground v.1.15,2013-02-27 19:30:00,
2013-02-27 13:36:00,28.9,23.5,28.34,NNW,348,6.0,10.0,80,0.00,,,0.00,Wunderground v.1.15,2013-02-27 19:36:00,
2013-02-27 13:42:00,28.8,23.1,28.33,NE,46,5.0,7.0,79,0.00,,,0.00,Wunderground v.1.15,2013-02-27 19:42:00,
2013-02-27 13:48:00,28.8,23.4,28.34,NE,44,5.0,10.0,80,0.00,,,0.00,Wunderground v.1.15,2013-02-27 19:48:00,
2013-02-27 13:54:00,28.9,23.5,28.34,NNE,30,4.0,10.0,80,0.00,,,0.00,Wunderground v.1.15,2013-02-27 19:54:00,
2013-02-27 14:00:00,29.1,23.7,28.33,NW,311,4.0,10.0,80,0.00,,,0.00,Wunderground v.1.15,2013-02-27 20:00:00,
2013-02-27 14:06:00,29.3,23.6,28.33,North,356,4.0,10.0,79,0.00,,,0.00,Wunderground v.1.15,2013-02-27 20:06:00,
2013-02-27 14:12:00,29.2,23.5,28.33,West,269,5.0,10.0,79,0.00,,,0.00,Wunderground v.1.15,2013-02-27 20:12:00,
2013-02-27 14:18:00,29.4,23.7,28.33,NNW,336,4.0,10.0,79,0.00,,,0.00,Wunderground v.1.15,2013-02-27 20:18:00,
2013-02-27 14:24:00,29.8,24.1,28.33,NNW,340,4.0,10.0,79,0.00,,,0.00,Wunderground v.1.15,2013-02-27 20:24:00,
2013-02-27 14:30:00,29.8,23.8,28.33,NNW,339,4.0,10.0,78,0.00,,,0.00,Wunderground v.1.15,2013-02-27 20:30:00,
2013-02-27 14:36:00,29.9,24.2,28.33,NNE,25,4.0,10.0,79,0.00,,,0.00,Wunderground v.1.15,2013-02-27 20:36:00,
2013-02-27 14:42:00,29.8,23.8,28.34,NE,35,5.0,10.0,78,0.00,,,0.00,Wunderground v.1.15,2013-02-27 20:42:00,
2013-02-27 14:48:00,29.6,23.6,28.33,NE,41,4.0,10.0,78,0.00,,,0.00,Wunderground v.1.15,2013-02-27 20:48:00,
2013-02-27 14:54:00,29.6,23.6,28.33,NNE,25,4.0,10.0,78,0.00,,,0.00,Wunderground v.1.15,2013-02-27 20:54:00,
2013-02-27 15:00:00,29.4,23.4,28.33,North,4,5.0,10.0,78,0.00,,,0.00,Wunderground v.1.15,2013-02-27 21:00:00,
2013-02-27 15:06:00,29.2,23.2,28.33,NNW,336,7.0,10.0,78,0.00,,,0.00,Wunderground v.1.15,2013-02-27 21:06:00,
2013-02-27 15:12:00,29.0,23.0,28.33,North,8,8.0,10.0,78,0.00,,,0.00,Wunderground v.1.15,2013-02-27 21:12:00,
2013-02-27 15:18:00,29.3,23.6,28.34,North,357,6.0,10.0,79,0.00,,,0.00,Wunderground v.1.15,2013-02-27 21:18:00,
2013-02-27 15:24:00,29.6,23.9,28.34,NNE,27,4.0,10.0,79,0.00,,,0.00,Wunderground v.1.15,2013-02-27 21:24:00,
2013-02-27 15:30:00,29.5,23.8,28.34,NW,308,4.0,4.0,79,0.00,,,0.00,Wunderground v.1.15,2013-02-27 21:30:00,
2013-02-27 15:36:00,29.6,23.9,28.34,NW,314,4.0,10.0,79,0.00,,,0.00,Wunderground v.1.15,2013-02-27 21:36:00,
2013-02-27 15:42:00,29.6,23.9,28.34,NNE,26,5.0,9.0,79,0.00,,,0.00,Wunderground v.1.15,2013-02-27 21:42:00,
2013-02-27 15:48:00,29.4,23.7,28.34,North,5,5.0,12.0,79,0.00,,,0.00,Wunderground v.1.15,2013-02-27 21:48:00,
2013-02-27 15:54:00,29.3,23.6,28.34,NNE,28,6.0,13.0,79,0.00,,,0.00,Wunderground v.1.15,2013-02-27 21:54:00,
2013-02-27 16:00:00,29.3,23.6,28.34,NNE,32,5.0,10.0,79,0.00,,,0.00,Wunderground v.1.15,2013-02-27 22:00:00,
2013-02-27 16:06:00,29.1,23.4,28.34,NNW,345,6.0,10.0,79,0.00,,,0.00,Wunderground v.1.15,2013-02-27 22:06:00,
2013-02-27 16:12:00,28.9,23.2,28.34,NNE,20,7.0,12.0,79,0.00,,,0.00,Wunderground v.1.15,2013-02-27 22:12:00,
2013-02-27 16:18:00,28.8,23.1,28.34,NNW,348,7.0,12.0,79,0.00,,,0.00,Wunderground v.1.15,2013-02-27 22:18:00,
2013-02-27 16:24:00,28.8,23.4,28.34,NNE,20,6.0,10.0,80,0.00,,,0.00,Wunderground v.1.15,2013-02-27 22:24:00,
2013-02-27 16:30:00,28.7,23.3,28.34,North,356,6.0,6.0,80,0.00,,,0.00,Wunderground v.1.15,2013-02-27 22:30:00,
2013-02-27 16:36:00,28.8,23.7,28.35,NNW,347,4.0,10.0,81,0.00,,,0.00,Wunderground v.1.15,2013-02-27 22:36:00,
2013-02-27 16:42:00,29.0,23.6,28.35,NNE,33,3.0,10.0,80,0.00,,,0.00,Wunderground v.1.15,2013-02-27 22:42:00,
2013-02-27 16:48:00,29.0,23.6,28.35,NW,314,4.0,10.0,80,0.00,,,0.00,Wunderground v.1.15,2013-02-27 22:48:00,
2013-02-27 16:54:00,29.0,23.6,28.35,NE,39,5.0,10.0,80,0.00,,,0.00,Wunderground v.1.15,2013-02-27 22:54:00,
2013-02-27 17:00:00,28.9,23.5,28.35,NNE,16,5.0,5.0,80,0.00,,,0.00,Wunderground v.1.15,2013-02-27 23:00:00,
2013-02-27 17:06:00,28.8,23.4,28.35,North,360,5.0,10.0,80,0.00,,,0.00,Wunderground v.1.15,2013-02-27 23:06:00,
2013-02-27 17:12:00,28.6,23.2,28.35,NNE,26,5.0,10.0,80,0.00,,,0.00,Wunderground v.1.15,2013-02-27 23:12:00,
2013-02-27 17:18:00,28.5,23.4,28.35,NNE,25,5.0,10.0,81,0.00,,,0.00,Wunderground v.1.15,2013-02-27 23:18:00,
2013-02-27 17:24:00,28.3,23.2,28.36,NNE,18,5.0,10.0,81,0.00,,,0.00,Wunderground v.1.15,2013-02-27 23:24:00,
2013-02-27 17:30:00,28.1,23.0,28.36,NNW,335,5.0,5.0,81,0.00,,,0.00,Wunderground v.1.15,2013-02-27 23:30:00,
2013-02-27 17:36:00,27.8,22.7,28.36,NNE,25,6.0,14.0,81,0.00,,,0.00,Wunderground v.1.15,2013-02-27 23:36:00,
2013-02-27 17:42:00,27.7,22.6,28.36,NNW,347,7.0,10.0,81,0.00,,,0.00,Wunderground v.1.15,2013-02-27 23:42:00,
2013-02-27 17:48:00,27.6,22.5,28.36,North,8,6.0,10.0,81,0.00,,,0.00,Wunderground v.1.15,2013-02-27 23:48:00,
2013-02-27 17:54:00,27.5,22.7,28.36,ENE,58,5.0,10.0,82,0.00,,,0.00,Wunderground v.1.15,2013-02-27 23:54:00,
2013-02-27 18:00:00,27.4,22.6,28.36,NNE,13,5.0,10.0,82,0.00,,,0.00,Wunderground v.1.15,2013-02-28 00:00:00,
2013-02-27 18:06:00,27.4,22.6,28.36,NNW,347,5.0,10.0,82,0.00,,,0.00,Wunderground v.1.15,2013-02-28 00:06:00,
2013-02-27 18:12:00,27.4,22.6,28.36,North,10,4.0,4.0,82,0.00,,,0.00,Wunderground v.1.15,2013-02-28 00:12:00,
2013-02-27 18:18:00,27.4,22.6,28.35,NNW,347,4.0,10.0,82,0.00,,,0.00,Wunderground v.1.15,2013-02-28 00:18:00,
2013-02-27 18:24:00,27.4,22.6,28.35,North,356,4.0,10.0,82,0.00,,,0.00,Wunderground v.1.15,2013-02-28 00:24:00,
2013-02-27 18:30:00,27.4,22.6,28.35,ENE,61,4.0,4.0,82,0.00,,,0.00,Wunderground v.1.15,2013-02-28 00:30:00,
2013-02-27 18:36:00,27.3,22.8,28.35,NNW,344,4.0,10.0,83,0.00,,,0.00,Wunderground v.1.15,2013-02-28 00:36:00,
2013-02-27 18:42:00,27.2,22.7,28.35,NE,51,3.0,10.0,83,0.00,,,0.00,Wunderground v.1.15,2013-02-28 00:42:00,
2013-02-27 18:48:00,27.1,22.9,28.35,NNW,332,4.0,10.0,84,0.00,,,0.00,Wunderground v.1.15,2013-02-28 00:48:00,
2013-02-27 18:54:00,26.9,22.7,28.36,NNE,29,5.0,10.0,84,0.00,,,0.00,Wunderground v.1.15,2013-02-28 00:54:00,
2013-02-27 19:00:00,26.9,22.7,28.36,North,360,4.0,10.0,84,0.00,,,0.00,Wunderground v.1.15,2013-02-28 01:00:00,
2013-02-27 19:06:00,26.7,22.5,28.36,NNE,29,5.0,10.0,84,0.00,,,0.00,Wunderground v.1.15,2013-02-28 01:06:00,
2013-02-27 19:12:00,26.6,22.4,28.36,NNW,335,5.0,10.0,84,0.00,,,0.00,Wunderground v.1.15,2013-02-28 01:12:00,
2013-02-27 19:18:00,26.5,22.6,28.36,NNE,25,4.0,10.0,85,0.00,,,0.00,Wunderground v.1.15,2013-02-28 01:18:00,
2013-02-27 19:24:00,26.5,22.3,28.36,NE,48,4.0,10.0,84,0.00,,,0.00,Wunderground v.1.15,2013-02-28 01:24:00,
2013-02-27 19:30:00,26.3,22.1,28.36,North,350,6.0,6.0,84,0.00,,,0.00,Wunderground v.1.15,2013-02-28 01:30:00,
2013-02-27 19:36:00,26.3,22.1,28.36,North,349,5.0,10.0,84,0.00,,,0.00,Wunderground v.1.15,2013-02-28 01:36:00,
2013-02-27 19:42:00,26.1,21.9,28.36,NNE,32,5.0,10.0,84,0.00,,,0.00,Wunderground v.1.15,2013-02-28 01:42:00,
2013-02-27 19:48:00,26.1,21.9,28.36,NNE,25,4.0,10.0,84,0.00,,,0.00,Wunderground v.1.15,2013-02-28 01:48:00,
2013-02-27 19:54:00,25.9,22.0,28.36,NE,49,5.0,11.0,85,0.00,,,0.00,Wunderground v.1.15,2013-02-28 01:54:00,
2013-02-27 20:00:00,25.8,21.9,28.37,NW,316,5.0,5.0,85,0.00,,,0.00,Wunderground v.1.15,2013-02-28 02:00:00,
2013-02-27 20:06:00,25.6,21.7,28.37,NNE,33,5.0,10.0,85,0.00,,,0.00,Wunderground v.1.15,2013-02-28 02:06:00,
2013-02-27 20:12:00,25.4,21.5,28.37,NNE,30,6.0,11.0,85,0.00,,,0.00,Wunderground v.1.15,2013-02-28 02:12:00,
2013-02-27 20:18:00,25.3,21.7,28.37,NNE,15,6.0,11.0,86,0.00,,,0.00,Wunderground v.1.15,2013-02-28 02:18:00,
2013-02-27 20:24:00,25.1,21.5,28.37,NW,323,5.0,10.0,86,0.00,,,0.00,Wunderground v.1.15,2013-02-28 02:24:00,
2013-02-27 20:30:00,24.9,21.3,28.37,NNE,30,7.0,10.0,86,0.00,,,0.00,Wunderground v.1.15,2013-02-28 02:30:00,
2013-02-27 20:36:00,24.7,21.1,28.37,North,9,7.0,11.0,86,0.00,,,0.00,Wunderground v.1.15,2013-02-28 02:36:00,
2013-02-27 20:42:00,24.5,20.9,28.37,NNE,30,5.0,10.0,86,0.00,,,0.00,Wunderground v.1.15,2013-02-28 02:42:00,
2013-02-27 20:48:00,24.2,20.6,28.37,NNE,26,4.0,10.0,86,0.00,,,0.00,Wunderground v.1.15,2013-02-28 02:48:00,
2013-02-27 20:54:00,24.0,20.4,28.37,North,6,4.0,10.0,86,0.00,,,0.00,Wunderground v.1.15,2013-02-28 02:54:00,
2013-02-27 21:00:00,23.7,20.4,28.37,North,351,4.0,11.0,87,0.00,,,0.00,Wunderground v.1.15,2013-02-28 03:00:00,
2013-02-27 21:06:00,23.5,20.2,28.37,NNW,342,5.0,11.0,87,0.00,,,0.00,Wunderground v.1.15,2013-02-28 03:06:00,